METOP-B

Last updated on Tue Jun 17 2025 00:02:21 GMT+0000 (Coordinated Universal Time)

1 38771U 12049A 25167.57689973 .00000101 00000+0 65871-4 0 9999 2 38771 98.5764 221.5974 0000975 53.6443 306.4825 14.21464902661322
UTC large
Height (km)
Speed (km/s)
/
Latitude / Longitude
Inclination (degrees)
Orbital Period (minutes)
Azimuth
Elevation
Range (km)
Doppler Factor

Next 0 passes for location: London (51.5072 / 0.1276)

Sorry there are no passes over London.